Location: Auckland
(36.8670°S, 174.7670°E)
Time: 19:47:29
(UTC+12:00)

Tiros 1 despin weight - Pass Details

Date: 24 July 2019
Orbit: 594 x 642 km, 48.2° (Epoch: 26 August)

Event Time Altitude Azimuth Distance (km) Brightness Sun altitude
Rises 21:58:41 0° 324° (NW) 2,834 - -53.4°
Reaches altitude 10° 22:01:02 10° 330° (NNW) 1,934 - -53.9°
Maximum altitude 22:05:15 44° 42° (NE) 834 - -54.7°
Drops below altitude 10° 22:09:30 10° 113° (ESE) 1,947 - -55.5°
Sets 22:11:52 0° 120° (ESE) 2,857 - -55.9°
